Lid_Strength_Index
8 11 13 11 10 11 11 13 14 12 9 11 11 12 10 9 11 12 11 12 10 7 5 4 2 2 3 2 2 2 2 2 2 1 1 1 1 1 0 -0 -1 -1 -0 0
11 13 10 9 9 11 12 13 14 11 9 10 11 13 11 10 11 10 10 10 11 10 8 5 4 2 2 3 2 2 1 1 2 1 1 1 1 1 1 -0 0 0 0 0
13 11 8 10 11 12 12 13 13 13 11 10 11 13 12 11 10 10 10 9 9 9 9 9 6 3 2 2 2 2 2 1 1 1 1 2 1 2 1 1 1 1 0 1
11 8 10 11 12 11 14 10 11 12 13 17 11 18 13 12 11 11 10 10 9 10 9 9 9 6 3 2 1 2 2 1 1 1 1 1 2 2 1 1 1 1 1 1
12 11 11 13 11 10 13 9 11 11 13 14 14 17 14 12 13 11 10 9 9 8 9 9 9 9 5 3 2 2 2 2 1 1 1 1 2 1 1 1 1 1 1 1
10 8 9 10 9 9 9 11 11 12 13 19 15 16 15 13 12 11 10 10 9 8 9 8 7 7 8 4 3 2 2 3 2 1 1 1 2 1 2 2 2 2 1 1
12 11 9 8 11 10 11 14 19 20 20 20 14 16 14 12 12 11 10 10 9 9 9 8 8 9 9 7 4 3 3 3 2 3 2 1 1 1 2 2 2 2 2 2
16 18 11 9 11 13 13 14 18 22 22 19 15 18 14 10 8 8 8 10 11 11 11 10 9 9 9 8 5 3 3 3 3 3 2 1 1 1 2 2 2 2 2 2
15 15 11 9 9 10 13 15 12 17 20 20 17 15 12 12 11 11 11 11 11 11 12 12 11 10 10 9 7 4 4 3 3 3 3 2 2 2 2 2 2 2 2 2
12 16 11 11 9 9 11 10 17 16 21 22 18 17 15 14 10 8 9 11 10 11 11 12 12 12 11 11 8 6 4 3 3 3 2 2 2 2 2 3 3 2 2 2
11 13 14 11 13 14 13 14 14 14 16 20 21 17 14 12 11 9 8 9 11 11 11 11 13 14 13 12 11 7 5 5 4 3 3 2 3 3 2 3 3 2 2 3
10 13 17 15 12 10 10 12 12 17 19 17 17 17 13 11 11 11 10 10 11 11 11 12 14 14 14 13 12 11 7 5 4 4 4 3 4 3 3 3 3 3 3 3
10 14 19 16 13 12 13 12 12 12 14 17 19 16 13 14 13 13 12 11 12 12 12 13 14 14 13 13 12 11 9 7 7 6 5 5 5 4 4 4 4 3 3 3
8 13 15 17 15 13 14 12 12 13 16 16 16 14 11 14 14 13 12 12 12 12 13 13 14 13 13 12 12 12 11 9 8 7 7 7 7 7 7 7 7 6 5 5
10 15 13 13 12 13 14 13 12 14 13 16 14 14 11 9 12 13 12 12 12 12 13 13 13 12 12 12 12 11 11 11 10 10 10 10 10 9 9 8 8 8 8 8
10 14 13 15 12 12 14 12 12 12 12 12 12 13 9 9 10 12 11 12 12 12 12 13 13 12 13 12 12 11 11 11 11 11 12 11 11 11 11 11 11 11 10 10
11 13 14 17 13 14 16 13 12 12 11 12 15 11 8 9 10 11 11 11 12 12 12 12 12 11 11 12 11 11 11 11 11 12 12 12 12 13 13 13 13 13 12 12
12 13 13 20 15 20 14 10 10 11 10 9 10 9 8 8 8 10 10 8 10 11 11 11 11 11 11 11 12 11 11 12 12 13 13 13 13 13 13 13 13 12 12 12
10 15 19 18 20 17 14 11 12 12 12 8 9 8 8 9 12 9 10 8 9 10 10 11 11 11 11 11 11 11 12 12 13 13 13 13 12 13 13 13 12 12 13 14
10 11 18 17 24 24 16 11 10 9 16 9 9 9 10 11 12 9 9 11 11 12 12 12 12 11 11 11 11 11 11 12 12 12 12 12 12 13 13 13 14 14 14 15
14 13 16 18 21 18 12 12 9 16 15 12 9 9 9 10 8 8 9 11 11 12 12 12 12 11 11 12 11 11 12 11 12 13 13 13 13 13 13 14 14 14 15 15
14 15 16 15 21 21 12 12 13 10 11 12 11 11 11 9 8 8 7 10 12 13 13 12 13 14 13 13 11 12 11 13 13 13 13 13 13 13 14 14 15 15 14 14
14 13 15 13 14 12 12 11 9 10 10 10 11 10 10 11 11 10 10 10 11 13 14 14 14 14 15 14 11 12 13 13 13 12 13 13 13 13 14 14 14 14 14 13
12 9 12 12 11 10 9 9 9 9 10 10 10 11 11 12 12 13 13 12 13 14 14 16 15 15 15 16 14 13 13 13 12 13 13 13 13 14 14 14 13 13 13 13
11 10 12 13 10 9 8 8 8 9 10 11 11 13 12 12 13 13 14 14 14 14 17 16 14 14 14 16 16 14 13 12 12 13 13 13 14 14 15 15 14 14 13 12
10 11 12 13 9 8 8 7 8 10 9 10 12 12 12 13 12 14 14 15 16 16 18 17 17 16 16 15 15 15 13 12 12 13 13 13 14 15 16 15 14 12 12 12